Waarnemingen

Advertentie
Mijn weer
F3, Nederland (6239): temperatuur & dauwpunt: 16.01.2018 17:00:00 - 22.01.2018 17:00:00 (CET)F3, Nederland (6239): windsnelheid & windstoten: 16.01.2018 17:00:00 - 22.01.2018 17:00:00 (CET)F3, Nederland (6239): windrichting: 16.01.2018 17:00:00 - 22.01.2018 17:00:00 (CET)F3, Nederland (6239): luchtdruk: 16.01.2018 17:00:00 - 22.01.2018 17:00:00 (CET)F3, Nederland (6239): zicht: 16.01.2018 17:00:00 - 22.01.2018 17:00:00 (CET)
Datum & Tijd tt [°C] td [°C] ff [km/u] ff [kn] fx [km/u] fx [kn] dd ppp [hPa] vv [km]
22.01.2018 17:00:00 6,9 5,3 30 16 - - WNW 1006,5 12
22.01.2018 16:00:00 6,9 5,4 29 16 - - W 1005,5 11
22.01.2018 15:00:00 6,8 5,4 29 16 32 18 W 1004,4 11
22.01.2018 14:00:00 6,7 5,4 29 16 32 18 W 1003,7 12
22.01.2018 13:00:00 6,7 5,4 25 14 - - W 1003,4 11
22.01.2018 12:00:00 6,8 5,5 29 16 32 18 W 1003,2 12
22.01.2018 11:00:00 6,6 5,5 22 12 25 14 WZW 1002,7 11
22.01.2018 10:00:00 6,5 5,5 18 10 - - W 1002,2 13
22.01.2018 09:00:00 5,8 5,2 15 8 36 19 ZW 1001,6 4,1
22.01.2018 08:00:00 4,6 3,8 32 18 43 23 Z 1001,5 12
22.01.2018 07:00:00 4,1 3,2 36 19 - - ZZO 1001,3 9
22.01.2018 06:00:00 3,8 2,8 43 23 54 29 ZZO 1001,1 4,3
22.01.2018 05:00:00 3,4 2,3 47 25 58 31 ZZO 1002,0 2,2
22.01.2018 04:00:00 3,2 1,9 47 25 - - ZZO 1002,4 4,0
22.01.2018 03:00:00 3,4 1,4 50 27 58 31 ZZO 1003,4 5
22.01.2018 02:00:00 3,5 1,3 61 33 61 33 Z 1003,8 6
22.01.2018 01:00:00 4,1 0,3 50 27 - - Z 1005,3 7
22.01.2018 00:00:00 5,3 1,2 43 23 54 29 ZZO 1006,0 31
21.01.2018 23:00:00 5,2 0,9 40 21 58 31 Z 1007,0 24
21.01.2018 22:00:00 4,7 1,3 40 21 - - ZZO 1007,8 10
21.01.2018 21:00:00 5,3 1,3 32 18 40 21 Z 1009,4 44
21.01.2018 20:00:00 5,2 0,9 32 18 36 19 ZZO 1009,5 49
21.01.2018 19:00:00 5,2 0,7 25 14 - - ZZO 1010,9 50
21.01.2018 18:00:00 5,3 0,0 22 12 25 14 Z 1011,8 50
21.01.2018 17:00:00 5,3 -0,2 18 10 22 12 Z 1012,1 45
21.01.2018 16:00:00 5,7 -0,5 15 8 - - Z 1012,5 10
21.01.2018 15:00:00 5,6 -0,2 11 6 14 8 Z 1012,7 41
21.01.2018 14:00:00 5,6 -0,6 7 4 7 4 Z 1013,1 50
21.01.2018 13:00:00 5,4 -0,9 4 2 - - WZW 1013,3 45
21.01.2018 12:00:00 5,2 -0,7 8 4 11 6 NW 1013,0 10
21.01.2018 11:00:00 4,9 0,5 16 9 18 10 NW 1012,9 10
21.01.2018 10:00:00 5,0 0,2 4 2 - - NNW 1012,3 44
21.01.2018 09:00:00 4,9 -0,1 14 8 36 19 NNW 1011,4 50
21.01.2018 08:00:00 5,2 0,2 14 8 32 18 NW 1010,8 50
21.01.2018 07:00:00 5,2 -0,4 18 10 - - N 1009,8 50
21.01.2018 06:00:00 4,8 0,6 18 10 29 16 NW 1009,2 50
21.01.2018 05:00:00 4,8 0,7 22 12 29 16 NNW 1008,1 10
21.01.2018 04:00:00 4,4 1,4 22 12 - - NNW 1007,0 50
21.01.2018 03:00:00 4,6 0,5 29 16 36 19 NNW 1006,4 50
21.01.2018 02:00:00 4,5 0,9 22 12 47 25 N 1005,2 50
21.01.2018 01:00:00 3,8 1,2 32 18 - - N 1003,6 46
21.01.2018 00:00:00 4,1 0,9 36 19 47 25 NW 1001,9 47
20.01.2018 23:00:00 3,3 1,0 29 16 43 23 NNW 1001,1 12
20.01.2018 22:00:00 4,1 0,4 29 16 - - NW 1000,3 50
20.01.2018 21:00:00 4,3 0,6 34 18 32 18 WNW 999,5 10
20.01.2018 20:00:00 4,7 0,4 29 16 36 19 WNW 998,8 50
20.01.2018 19:00:00 4,6 0,7 25 14 - - W 998,6 45
20.01.2018 18:00:00 3,8 0,7 29 16 36 19 WNW 998,0 44
20.01.2018 17:00:00 4,5 0,7 18 10 32 18 W 997,7 43
20.01.2018 16:00:00 4,7 2,1 22 12 - - ZW 997,6 31
20.01.2018 15:00:00 4,0 1,5 29 16 40 21 ZZW 997,5 21
20.01.2018 14:00:00 3,6 1,2 36 19 40 21 ZW 997,5 31
20.01.2018 13:00:00 4,4 1,1 36 19 - - ZW 998,2 15
20.01.2018 12:00:00 4,6 1,3 39 21 47 25 ZW 998,9 10
20.01.2018 11:00:00 5,1 -0,5 36 19 43 23 ZW 998,9 33
20.01.2018 10:00:00 5,0 -0,8 29 16 - - WZW 999,3 41
20.01.2018 09:00:00 5,0 -0,8 29 16 32 18 WZW 999,3 45
20.01.2018 08:00:00 5,2 -0,5 29 16 43 23 W 999,1 48
20.01.2018 07:00:00 4,5 -0,5 32 18 - - W 999,2 43
20.01.2018 06:00:00 4,5 0,8 29 16 36 19 W 999,3 10
20.01.2018 05:00:00 4,1 1,4 14 8 32 18 ZW 999,8 23
20.01.2018 04:00:00 4,2 0,9 39 21 - - W 1000,3 10
20.01.2018 03:00:00 4,7 0,9 36 19 47 25 WZW 1000,6 27
20.01.2018 02:00:00 4,0 0,7 29 16 43 23 W 1001,1 6
20.01.2018 01:00:00 4,9 0,1 32 18 - - WZW 1001,2 45
20.01.2018 00:00:00 4,8 0,8 37 20 43 23 W 1001,3 10
19.01.2018 23:00:00 4,4 1,4 36 19 43 23 W 1001,3 20
19.01.2018 22:00:00 4,6 1,0 29 16 - - WZW 1001,7 41
19.01.2018 21:00:00 4,6 0,9 29 16 43 23 WZW 1001,6 31
19.01.2018 20:00:00 5,1 -0,4 44 24 47 25 W 1001,4 10
19.01.2018 19:00:00 5,2 0,4 32 18 - - WZW 1001,5 34
19.01.2018 18:00:00 5,1 0,4 37 20 43 23 W 1001,4 10
19.01.2018 17:00:00 5,2 0,6 32 18 43 23 W 1001,5 39
19.01.2018 16:00:00 5,2 0,6 36 19 - - WZW 1001,5 39
19.01.2018 15:00:00 5,3 1,5 32 18 43 23 WZW 1001,3 33
19.01.2018 14:00:00 5,3 1,7 32 18 50 27 W 1001,2 43
19.01.2018 13:00:00 5,3 1,2 32 18 - - W 1001,5 29
19.01.2018 12:00:00 5,2 0,1 32 18 40 21 WZW 1001,7 40
19.01.2018 11:00:00 5,5 1,0 39 21 40 21 W 1001,4 10
19.01.2018 10:00:00 5,4 0,6 35 19 - - W 1001,0 10
19.01.2018 09:00:00 5,2 2,0 34 18 36 19 - 1000,5 10
19.01.2018 08:00:00 5,2 1,4 31 17 40 21 W 1000,0 10
19.01.2018 07:00:00 4,6 0,9 26 14 - - W 999,9 10
19.01.2018 06:00:00 4,9 0,8 29 16 29 16 W 999,5 10
19.01.2018 05:00:00 5,2 1,8 28 15 29 16 W 999,2 10
19.01.2018 04:00:00 5,3 1,3 31 17 - - W 999,0 10
19.01.2018 03:00:00 5,4 1,4 29 16 29 16 W 998,8 10
19.01.2018 02:00:00 5,1 1,6 28 15 29 16 W 998,8 10
19.01.2018 01:00:00 4,8 1,1 29 16 - - W 998,3 10
19.01.2018 00:00:00 3,7 0,6 41 22 40 21 W 998,1 10
18.01.2018 23:00:00 4,8 1,2 34 18 40 21 W 998,0 10
18.01.2018 22:00:00 5,0 2,1 34 18 - - W 997,4 6
18.01.2018 21:00:00 5,0 1,2 42 23 43 23 W 997,2 10
18.01.2018 20:00:00 5,3 0,3 35 19 40 21 W 996,5 10
18.01.2018 19:00:00 5,6 0,8 31 17 - - W 996,0 10
18.01.2018 18:00:00 5,4 0,7 34 18 40 21 W 995,5 10
18.01.2018 17:00:00 5,0 0,1 34 18 43 23 WNW 994,8 10
18.01.2018 16:00:00 5,4 1,4 28 15 - - WNW 994,1 10
18.01.2018 15:00:00 4,4 0,7 28 15 47 25 NW 993,1 10
18.01.2018 14:00:00 5,3 1,2 39 21 43 23 NW 991,6 10
18.01.2018 13:00:00 5,5 2,7 41 22 - - NW 990,5 10
18.01.2018 12:00:00 4,9 2,1 42 23 43 23 NW 989,1 10
18.01.2018 11:00:00 3,7 2,6 29 16 43 23 N 987,5 6
18.01.2018 10:00:00 3,7 1,9 42 23 - - NNO 985,4 10
18.01.2018 09:00:00 2,9 1,5 41 22 47 25 NO 982,8 8
18.01.2018 08:00:00 2,9 1,1 31 17 32 18 ONO 982,6 4,6
18.01.2018 07:00:00 3,3 0,8 24 13 - - OZO 983,8 10
18.01.2018 06:00:00 3,8 1,1 22 12 40 21 Z 985,5 10
18.01.2018 05:00:00 4,7 1,3 37 20 40 21 ZZW 988,0 7
18.01.2018 04:00:00 5,6 1,4 34 18 - - WZW 989,6 10
18.01.2018 03:00:00 5,6 1,7 37 20 50 27 WZW 991,5 10
18.01.2018 02:00:00 5,2 0,2 46 25 50 27 WZW 993,0 10
18.01.2018 01:00:00 5,8 1,7 54 29 - - WZW 993,8 10
18.01.2018 00:00:00 5,9 1,4 57 31 65 35 W 995,0 10
17.01.2018 23:00:00 6,0 2,3 61 33 65 35 W 994,9 10
17.01.2018 22:00:00 5,8 3,3 63 34 - - W 995,2 10
17.01.2018 21:00:00 3,8 1,4 57 31 72 39 W 995,4 10
17.01.2018 20:00:00 5,6 1,7 44 24 61 33 W 995,2 10
17.01.2018 19:00:00 5,9 2,0 65 35 - - W 995,3 10
17.01.2018 18:00:00 6,0 2,5 68 37 65 35 W 994,7 10
17.01.2018 17:00:00 4,6 2,4 57 31 68 37 W 994,7 10
17.01.2018 16:00:00 4,7 3,2 57 31 - - WNW 994,3 3,6
17.01.2018 15:00:00 3,7 2,5 37 20 61 33 NW 993,7 10
17.01.2018 14:00:00 2,6 1,1 67 36 72 39 W 992,6 10
17.01.2018 13:00:00 3,3 0,9 42 23 - - W 991,8 10
17.01.2018 12:00:00 3,5 -0,6 54 29 58 31 WNW 991,3 10
17.01.2018 11:00:00 4,2 0,1 41 22 65 35 W 990,3 10
17.01.2018 10:00:00 4,2 -0,7 48 26 - - W 988,8 10
17.01.2018 09:00:00 4,1 -1,2 50 27 65 35 WNW 988,5 10
17.01.2018 08:00:00 4,7 0,0 55 30 61 33 W 987,1 10
17.01.2018 07:00:00 3,6 -1,2 57 31 - - W 986,1 10
17.01.2018 06:00:00 4,3 0,1 54 29 61 33 W 985,4 10
17.01.2018 05:00:00 4,7 -1,3 46 25 61 33 W 984,5 10
17.01.2018 04:00:00 4,7 -1,9 44 24 - - W 984,7 10
17.01.2018 03:00:00 3,4 -0,5 55 30 68 37 W 984,2 10
17.01.2018 02:00:00 5,1 0,3 50 27 58 31 W 984,0 10
17.01.2018 01:00:00 5,0 -0,1 52 28 - - W 983,8 10
17.01.2018 00:00:00 5,2 0,7 55 30 58 31 W 983,7 10
16.01.2018 23:00:00 5,2 0,5 50 27 54 29 W 983,4 10
16.01.2018 22:00:00 4,4 1,8 59 32 - - W 984,0 10
16.01.2018 21:00:00 4,3 0,3 61 33 68 37 W 984,1 10
16.01.2018 20:00:00 4,8 -0,2 55 30 65 35 W 983,9 10
16.01.2018 19:00:00 5,5 0,2 57 31 - - W 983,6 10
16.01.2018 18:00:00 4,9 -0,4 61 33 61 33 W 983,9 10
16.01.2018 17:00:00 5,5 -0,3 61 33 65 35 W 983,9 10

tt = temperatuur
td = dauwpunt
ff = windsnelheid
fx = windstoten
dd = windrichting
ppp = luchtdruk
vv = zicht

Weerstations in de omgeving